Terminal Aerodrome Forecast
Issued by NWS

Home | Current Version | Previous Version | Text Only | Print | Product List | Glossary On
Versions: 1 2 3 4 5 6 7 8 9 10 11 12 13 14 15 16 17 18 19 20 21 22 23 24 25 26 27 28 29 30 31 32 33 34 35 36 37 38 39 40 41 42 43 44 45 46
000
FTUS45 KGJT 241133
TAFASE
TAF
KASE 241133Z 2412/2512 20007KT P6SM SKC
     FM241700 31005KT P6SM FEW150
     FM242000 30010G18KT P6SM SCT200
     FM242300 27010G19KT P6SM SCT200
     FM250100 24008KT P6SM SCT200
     FM250700 21007KT P6SM SCT200 WS020/25035KT=

USA.gov is the U.S. government's official web portal to all federal, state and local government web resources and services.